Location: Unspecified
(0.0000°N, 0.0000°E)
Time: 21:16:00
(UTC+00:00)

STARLINK-32459 - Visible Passes

Search period start: 12 January 2025 00:00
Search period end: 22 January 2025 00:00
Orbit: 446 x 448 km, 53.2° (Epoch: 12 January)

Date Brightness Start Highest point End Pass type
(mag) Time Alt. Az. Time Alt. Az. Time Alt. Az.
17 Jan 3.9 19:41:34 10° NW 19:44:03 44° NW 19:44:03 44° NW visible
18 Jan 3.3 19:03:12 10° NNW 19:06:36 50° NE 19:10:03 10° SE visible
20 Jan 6.4 19:24:32 10° W 19:26:45 16° SW 19:28:59 10° SSW visible
21 Jan 6.6 05:28:38 10° SSE 05:30:29 14° SE 05:32:20 10° E visible
21 Jan 5.8 18:45:17 10° WNW 18:48:17 26° SW 18:51:16 10° S visible
